,,,PA_Meas_PMT16A,,PR_Meas_QMR101_102,,RH_Meas_QMH101,,SR_Meas_QMS101,,TA_Meas_QMH101,,GenWind,,GenWind,
date,time,status,PA,status,PR,status,RH,status,SR,status,TA,status,DirAvg,status,SpdAvg,
2012-06-02, 00:00:04,VALID,998.518,VALID,0,VALID,69.5669,VALID,0,VALID,27.0201,VALID,162,VALID,3.10117,
2012-06-02, 00:01:04,VALID,998.465,VALID,0,VALID,69.7958,VALID,0,VALID,26.9615,VALID,163,VALID,2.81562,
2012-06-02, 00:02:04,VALID,998.45,VALID,0,VALID,69.8721,VALID,0,VALID,26.9399,VALID,171,VALID,2.65664,
2012-06-02, 00:03:04,VALID,998.445,VALID,0,VALID,70.101,VALID,0,VALID,26.9615,VALID,167,VALID,2.33555,
2012-06-02, 00:04:04,VALID,998.432,VALID,0,VALID,70.2078,VALID,0,VALID,26.9224,VALID,166,VALID,2.22187,
2012-06-02, 00:05:04,VALID,998.382,VALID,0,VALID,70.3298,VALID,0,VALID,26.8638,VALID,163,VALID,2.0418,
2012-06-02, 00:06:04,VALID,998.371,VALID,0,VALID,70.2307,VALID,0,VALID,26.8227,VALID,162,VALID,2.40586,
2012-06-02, 00:07:04,VALID,998.394,VALID,0,VALID,70.4443,VALID,0,VALID,26.8247,VALID,164,VALID,2.29688,
2012-06-02, 00:08:04,VALID,998.39,VALID,0,VALID,70.6121,VALID,0,VALID,26.8032,VALID,155,VALID,2.26172,
2012-06-02, 00:09:04,VALID,998.396,VALID,0,VALID,70.9478,VALID,0,VALID,26.7446,VALID,150,VALID,2.19219,
2012-06-02, 00:10:04,VALID,998.367,VALID,0,VALID,71.0775,VALID,0,VALID,26.7055,VALID,149,VALID,1.97422,
2012-06-02, 00:11:04,VALID,998.359,VALID,0,VALID,71.0089,VALID,0,VALID,26.7251,VALID,151,VALID,1.72305,
2012-06-02, 00:12:04,VALID,998.361,VALID,0,VALID,70.6732,VALID,0,VALID,26.7466,VALID,170,VALID,1.94883,
2012-06-02, 00:13:04,VALID,998.357,VALID,0,VALID,70.6961,VALID,0,VALID,26.7251,VALID,156,VALID,2.00234,
2012-06-02, 00:14:04,VALID,998.327,VALID,0,VALID,70.7037,VALID,0,VALID,26.7857,VALID,155,VALID,2.05664,
2012-06-02, 00:15:04,VALID,998.311,VALID,0,VALID,70.7495,VALID,0,VALID,26.7836,VALID,151,VALID,1.4668,
2012-06-02, 00:16:04,VALID,998.304,VALID,0,VALID,70.8258,VALID,0,VALID,26.7446,VALID,128,VALID,1.44023,
2012-06-02, 00:17:04,VALID,998.296,VALID,0,VALID,71.1996,VALID,0,VALID,26.688,VALID,133,VALID,1.24883,
2012-06-02, 00:18:04,VALID,998.264,VALID,0,VALID,71.9473,VALID,0,VALID,26.5688,VALID,131,VALID,0.804297,
2012-06-02, 00:19:04,VALID,998.226,VALID,0,VALID,72.0999,VALID,0,VALID,26.4927,VALID,135,VALID,0.780859,
2012-06-02, 00:20:04,VALID,998.193,VALID,0,VALID,72.4585,VALID,0,VALID,26.3931,VALID,119,VALID,1.0168,
2012-06-02, 00:21:04,VALID,998.229,VALID,0,VALID,72.9163,VALID,0,VALID,26.3365,VALID,145,VALID,0.880078,
2012-06-02, 00:22:04,VALID,998.152,VALID,0,VALID,72.8247,VALID,0,VALID,26.2974,VALID,148,VALID,1.3918,
2012-06-02, 00:23:04,VALID,998.151,VALID,0,VALID,72.7484,VALID,0,VALID,26.356,VALID,154,VALID,1.30039,
2012-06-02, 00:24:04,VALID,998.125,VALID,0,VALID,72.4814,VALID,0,VALID,26.354,VALID,141,VALID,0.700781,
2012-06-02, 00:25:04,VALID,998.102,VALID,0,VALID,72.5729,VALID,0,VALID,26.3345,VALID,136,VALID,1.21484,
2012-06-02, 00:26:04,VALID,998.104,VALID,0,VALID,72.6187,VALID,0,VALID,26.3345,VALID,141,VALID,1.2125,
2012-06-02, 00:27:04,VALID,998.113,VALID,0,VALID,73.2138,VALID,0,VALID,26.2974,VALID,100,VALID,0.928906,
2012-06-02, 00:28:04,VALID,998.078,VALID,0,VALID,73.6182,VALID,0,VALID,26.1803,VALID,101,VALID,0.846094,
2012-06-02, 00:29:04,VALID,998.09,VALID,0,VALID,73.7861,VALID,0,VALID,26.1002,VALID,109,VALID,0.623438,
2012-06-02, 00:30:04,VALID,998.066,VALID,0,VALID,74.0226,VALID,0,VALID,26.0807,VALID,109,VALID,0.199219,
2012-06-02, 00:31:04,VALID,998.048,VALID,0,VALID,74.3506,VALID,0,VALID,26.0631,VALID,109,VALID,0.212891,
2012-06-02, 00:32:04,VALID,998.016,VALID,0,VALID,74.4804,VALID,0,VALID,26.0045,VALID,109,VALID,0.309766,
2012-06-02, 00:33:04,VALID,998.014,VALID,0,VALID,74.755,VALID,0,VALID,25.9245,VALID,109,VALID,0.491797,
2012-06-02, 00:34:04,VALID,997.995,VALID,0,VALID,75.1746,VALID,0,VALID,25.8464,VALID,65,VALID,0.624219,
2012-06-02, 00:35:04,VALID,997.963,VALID,0,VALID,75.4798,VALID,0,VALID,25.7897,VALID,40,VALID,0.907812,
2012-06-02, 00:36:04,VALID,997.993,VALID,0,VALID,75.9758,VALID,0,VALID,25.6902,VALID,34,VALID,0.246875,
2012-06-02, 00:37:04,VALID,997.961,VALID,0,VALID,76.5022,VALID,0,VALID,25.5945,VALID,34,VALID,0.231641,
2012-06-02, 00:38:04,VALID,997.949,VALID,0,VALID,77.2575,VALID,0,VALID,25.4364,VALID,34,VALID,0.572266,
2012-06-02, 00:39:04,VALID,997.939,VALID,0,VALID,77.6695,VALID,0,VALID,25.3407,VALID,34,VALID,0.226172,
2012-06-02, 00:40:04,VALID,997.958,VALID,0,VALID,77.9366,VALID,0,VALID,25.2217,VALID,65,VALID,0.553125,
2012-06-02, 00:41:04,VALID,997.95,VALID,0,VALID,78.0586,VALID,0,VALID,25.2217,VALID,172,VALID,0.563672,
2012-06-02, 00:42:04,VALID,997.96,VALID,0,VALID,76.5022,VALID,0,VALID,25.5945,VALID,185,VALID,1.69023,
2012-06-02, 00:43:04,VALID,997.933,VALID,0,VALID,74.4269,VALID,0,VALID,26.0416,VALID,165,VALID,1.67695,
2012-06-02, 00:44:04,VALID,997.954,VALID,0,VALID,73.0307,VALID,0,VALID,26.317,VALID,159,VALID,1.61719,
2012-06-02, 00:45:04,VALID,997.912,VALID,0,VALID,72.7332,VALID,0,VALID,26.4126,VALID,152,VALID,1.25195,
2012-06-02, 00:46:04,VALID,997.891,VALID,0,VALID,72.2906,VALID,0,VALID,26.4321,VALID,165,VALID,1.57461,
2012-06-02, 00:47:04,VALID,997.813,VALID,0,VALID,72.3975,VALID,0,VALID,26.5123,VALID,146,VALID,0.867578,
2012-06-02, 00:48:04,VALID,997.834,VALID,0,VALID,72.3898,VALID,0,VALID,26.4712,VALID,183,VALID,1.00586,
2012-06-02, 00:49:04,VALID,997.799,VALID,0,VALID,71.9702,VALID,0,VALID,26.5904,VALID,193,VALID,1.17969,
2012-06-02, 00:50:04,VALID,997.788,VALID,0,VALID,71.3598,VALID,0,VALID,26.7251,VALID,222,VALID,1.36797,
2012-06-02, 00:51:04,VALID,997.79,VALID,0,VALID,70.5664,VALID,0,VALID,26.8422,VALID,204,VALID,0.711719,
2012-06-02, 00:52:04,VALID,997.768,VALID,0,VALID,69.8873,VALID,0,VALID,27.0571,VALID,196,VALID,2.88086,
2012-06-02, 00:53:04,VALID,997.719,VALID,0,VALID,68.865,VALID,0,VALID,27.2719,VALID,200,VALID,2.33828,
2012-06-02, 00:54:04,VALID,997.732,VALID,0,VALID,68.3004,VALID,0,VALID,27.3891,VALID,186,VALID,3.26836,
2012-06-02, 00:55:04,VALID,997.748,VALID,0,VALID,68.0562,VALID,0,VALID,27.4282,VALID,200,VALID,1.56172,
2012-06-02, 00:56:04,VALID,997.74,VALID,0,VALID,67.8197,VALID,0,VALID,27.4889,VALID,186,VALID,2.95039,
2012-06-02, 00:57:04,VALID,997.747,VALID,0,VALID,67.6671,VALID,0,VALID,27.5475,VALID,182,VALID,2.63945,
2012-06-02, 00:58:04,VALID,997.709,VALID,0,VALID,67.4993,VALID,0,VALID,27.5845,VALID,184,VALID,1.84063,
2012-06-02, 00:59:04,VALID,997.715,VALID,0,VALID,67.5755,VALID,0,VALID,27.604,VALID,200,VALID,2.09258,
2012-06-02, 01:00:04,VALID,997.698,VALID,0,VALID,67.2093,VALID,0,VALID,27.6452,VALID,193,VALID,2.13438,
2012-06-02, 01:01:04,VALID,997.719,VALID,0,VALID,66.8812,VALID,0,VALID,27.6842,VALID,173,VALID,2.37656,
2012-06-02, 01:02:04,VALID,997.738,VALID,0,VALID,67.6137,VALID,0,VALID,27.6452,VALID,160,VALID,2.04648,
2012-06-02, 01:03:04,VALID,997.707,VALID,0,VALID,67.3085,VALID,0,VALID,27.5063,VALID,165,VALID,2.40508,
2012-06-02, 01:04:04,VALID,997.708,VALID,0,VALID,68.1935,VALID,0,VALID,27.4693,VALID,142,VALID,1.57813,
2012-06-02, 01:05:04,VALID,997.713,VALID,0,VALID,69.1244,VALID,0,VALID,27.311,VALID,131,VALID,1.6125,
2012-06-02, 01:06:04,VALID,997.699,VALID,0,VALID,70.6655,VALID,0,VALID,27.0201,VALID,106,VALID,1.37148,
2012-06-02, 01:07:04,VALID,997.673,VALID,0,VALID,71.5658,VALID,0,VALID,26.7446,VALID,111,VALID,1.2043,
2012-06-02, 01:08:04,VALID,997.691,VALID,0,VALID,72.3212,VALID,0,VALID,26.6079,VALID,105,VALID,1.04609,
2012-06-02, 01:09:04,VALID,997.667,VALID,0,VALID,72.2144,VALID,0,VALID,26.5318,VALID,132,VALID,1.13906,
2012-06-02, 01:10:04,VALID,997.653,VALID,0,VALID,71.7261,VALID,0,VALID,26.5318,VALID,173,VALID,2.13789,
2012-06-02, 01:11:04,VALID,997.605,VALID,0,VALID,69.7195,VALID,0,VALID,26.9224,VALID,191,VALID,2.28398,
2012-06-02, 01:12:04,VALID,997.605,VALID,0,VALID,68.2927,VALID,0,VALID,27.2545,VALID,209,VALID,3.02656,
2012-06-02, 01:13:04,VALID,997.588,VALID,0,VALID,66.9118,VALID,0,VALID,27.5063,VALID,212,VALID,2.26367,
2012-06-02, 01:14:04,VALID,997.601,VALID,0,VALID,66.0573,VALID,0,VALID,27.7428,VALID,212,VALID,3.10039,
2012-06-02, 01:15:04,VALID,997.522,VALID,0,VALID,64.9891,VALID,0,VALID,27.9165,VALID,197,VALID,3.54219,
2012-06-02, 01:16:04,VALID,997.536,VALID,0,VALID,64.7373,VALID,0,VALID,28.0164,VALID,210,VALID,1.71875,
2012-06-02, 01:17:04,VALID,997.5,VALID,0,VALID,64.3864,VALID,0,VALID,28.0359,VALID,221,VALID,2.06211,
2012-06-02, 01:18:04,VALID,997.456,VALID,0,VALID,64.2109,VALID,0,VALID,28.0707,VALID,190,VALID,3.45547,
2012-06-02, 01:19:04,VALID,997.453,VALID,0,VALID,64.043,VALID,0,VALID,28.0902,VALID,208,VALID,2.41914,
2012-06-02, 01:20:04,VALID,997.421,VALID,0,VALID,64.0049,VALID,0,VALID,28.1293,VALID,193,VALID,2.14063,
2012-06-02, 01:21:04,VALID,997.445,VALID,0,VALID,63.9667,VALID,0,VALID,28.1293,VALID,192,VALID,2.22656,
2012-06-02, 01:22:04,VALID,997.429,VALID,0,VALID,64.0812,VALID,0,VALID,28.151,VALID,191,VALID,1.48125,
2012-06-02, 01:23:04,VALID,997.405,VALID,0,VALID,64.4855,VALID,0,VALID,28.0728,VALID,170,VALID,1.18789,
2012-06-02, 01:24:04,VALID,997.432,VALID,0,VALID,64.394,VALID,0,VALID,28.0728,VALID,190,VALID,2.13281,
2012-06-02, 01:25:04,VALID,997.419,VALID,0,VALID,65.1264,VALID,0,VALID,28.0142,VALID,172,VALID,1.70977,
2012-06-02, 01:26:04,VALID,997.43,VALID,0,VALID,66.0573,VALID,0,VALID,27.8189,VALID,149,VALID,1.7625,
2012-06-02, 01:27:04,VALID,997.468,VALID,0,VALID,67.2627,VALID,0,VALID,27.5238,VALID,147,VALID,1.35781,
2012-06-02, 01:28:04,VALID,997.456,VALID,0,VALID,68.2698,VALID,0,VALID,27.3089,VALID,144,VALID,1.28789,
2012-06-02, 01:29:04,VALID,997.431,VALID,0,VALID,69.0938,VALID,0,VALID,27.0961,VALID,143,VALID,1.22227,
2012-06-02, 01:30:04,VALID,997.443,VALID,0,VALID,70.5664,VALID,0,VALID,26.8793,VALID,139,VALID,0.733203,
2012-06-02, 01:31:04,VALID,997.443,VALID,0,VALID,71.7489,VALID,0,VALID,26.7055,VALID,125,VALID,0.714453,
2012-06-02, 01:32:04,VALID,997.441,VALID,0,VALID,72.6264,VALID,0,VALID,26.5082,VALID,105,VALID,0.871875,
2012-06-02, 01:33:04,VALID,997.444,VALID,0,VALID,73.458,VALID,0,VALID,26.356,VALID,101,VALID,0.809375,
2012-06-02, 01:34:04,VALID,997.425,VALID,0,VALID,74.1752,VALID,0,VALID,26.1803,VALID,111,VALID,0.678516,
2012-06-02, 01:35:04,VALID,997.44,VALID,0,VALID,74.6253,VALID,0,VALID,26.0241,VALID,140,VALID,0.649609,
2012-06-02, 01:36:04,VALID,997.425,VALID,0,VALID,74.2896,VALID,0,VALID,25.9245,VALID,172,VALID,1.08984,
2012-06-02, 01:37:04,VALID,997.445,VALID,0,VALID,74.0226,VALID,0,VALID,25.985,VALID,172,VALID,1.08398,
2012-06-02, 01:38:04,VALID,997.409,VALID,0,VALID,73.5801,VALID,0,VALID,26.1022,VALID,172,VALID,1.26953,
2012-06-02, 01:39:04,VALID,997.396,VALID,0,VALID,72.8095,VALID,0,VALID,26.1978,VALID,175,VALID,1.63242,
2012-06-02, 01:40:04,VALID,997.403,VALID,0,VALID,71.9015,VALID,0,VALID,26.4126,VALID,182,VALID,1.7543,
2012-06-02, 01:41:04,VALID,997.358,VALID,0,VALID,71.3827,VALID,0,VALID,26.5298,VALID,179,VALID,1.52539,
2012-06-02, 01:42:04,VALID,997.363,VALID,0,VALID,71.0012,VALID,0,VALID,26.6274,VALID,177,VALID,1.50391,
2012-06-02, 01:43:04,VALID,997.377,VALID,0,VALID,70.8181,VALID,0,VALID,26.6469,VALID,179,VALID,1.8043,
2012-06-02, 01:44:04,VALID,997.385,VALID,0,VALID,70.6732,VALID,0,VALID,26.688,VALID,173,VALID,1.90313,
2012-06-02, 01:45:04,VALID,997.398,VALID,0,VALID,70.5511,VALID,0,VALID,26.688,VALID,175,VALID,2.06992,
2012-06-02, 01:46:04,VALID,997.411,VALID,0,VALID,70.7495,VALID,0,VALID,26.6665,VALID,175,VALID,1.65195,
2012-06-02, 01:47:04,VALID,997.394,VALID,0,VALID,70.7571,VALID,0,VALID,26.6469,VALID,170,VALID,1.60703,
2012-06-02, 01:48:04,VALID,997.372,VALID,0,VALID,70.8792,VALID,0,VALID,26.5904,VALID,166,VALID,1.51992,
2012-06-02, 01:49:04,VALID,997.369,VALID,0,VALID,71.192,VALID,0,VALID,26.5102,VALID,163,VALID,1.60547,
2012-06-02, 01:50:04,VALID,997.369,VALID,0,VALID,71.5124,VALID,0,VALID,26.4537,VALID,167,VALID,1.50859,
2012-06-02, 01:51:04,VALID,997.375,VALID,0,VALID,71.7871,VALID,0,VALID,26.354,VALID,158,VALID,1.39844,
2012-06-02, 01:52:04,VALID,997.373,VALID,0,VALID,72.0312,VALID,0,VALID,26.2954,VALID,161,VALID,1.58203,
2012-06-02, 01:53:04,VALID,997.336,VALID,0,VALID,72.3593,VALID,0,VALID,26.2173,VALID,150,VALID,1.53828,
2012-06-02, 01:54:04,VALID,997.345,VALID,0,VALID,72.7561,VALID,0,VALID,26.1392,VALID,168,VALID,1.23359,
2012-06-02, 01:55:04,VALID,997.32,VALID,0,VALID,72.8476,VALID,0,VALID,26.1197,VALID,172,VALID,1.40898,
2012-06-02, 01:56:04,VALID,997.285,VALID,0,VALID,72.3441,VALID,0,VALID,26.1588,VALID,187,VALID,1.89258,
2012-06-02, 01:57:04,VALID,997.274,VALID,0,VALID,71.7032,VALID,0,VALID,26.317,VALID,185,VALID,2.57227,
2012-06-02, 01:58:04,VALID,997.285,VALID,0,VALID,71.2683,VALID,0,VALID,26.4321,VALID,207,VALID,1.63203,
2012-06-02, 01:59:04,VALID,997.281,VALID,0,VALID,70.7495,VALID,0,VALID,26.5298,VALID,204,VALID,2.1168,
2012-06-02, 02:00:04,VALID,997.255,VALID,0,VALID,70.6808,VALID,0,VALID,26.5513,VALID,171,VALID,2.58906,
2012-06-02, 02:01:04,VALID,997.266,VALID,0,VALID,70.8944,VALID,0,VALID,26.5298,VALID,175,VALID,2.17109,
2012-06-02, 02:02:04,VALID,997.267,VALID,0,VALID,70.6655,VALID,0,VALID,26.5318,VALID,185,VALID,1.72109,
2012-06-02, 02:03:04,VALID,997.235,VALID,0,VALID,70.8639,VALID,0,VALID,26.5123,VALID,195,VALID,1.75391,
2012-06-02, 02:04:04,VALID,997.214,VALID,0,VALID,71.1538,VALID,0,VALID,26.4732,VALID,211,VALID,1.0332,
2012-06-02, 02:05:04,VALID,997.199,VALID,0,VALID,71.1767,VALID,0,VALID,26.4341,VALID,201,VALID,1.49141,
2012-06-02, 02:06:04,VALID,997.185,VALID,0,VALID,71.2454,VALID,0,VALID,26.4146,VALID,187,VALID,1.39609,
2012-06-02, 02:07:04,VALID,997.158,VALID,0,VALID,71.0699,VALID,0,VALID,26.4146,VALID,188,VALID,1.04375,
2012-06-02, 02:08:04,VALID,997.169,VALID,0,VALID,71.1157,VALID,0,VALID,26.4146,VALID,221,VALID,1.08281,
2012-06-02, 02:09:04,VALID,997.175,VALID,0,VALID,71.2301,VALID,0,VALID,26.4146,VALID,214,VALID,1.69766,
2012-06-02, 02:10:04,VALID,997.185,VALID,0,VALID,71.2149,VALID,0,VALID,26.4146,VALID,206,VALID,1.20742,
2012-06-02, 02:11:04,VALID,997.184,VALID,0,VALID,71.253,VALID,0,VALID,26.3951,VALID,226,VALID,1.36953,
2012-06-02, 02:12:04,VALID,997.175,VALID,0,VALID,71.2759,VALID,0,VALID,26.3951,VALID,190,VALID,0.998828,
2012-06-02, 02:13:04,VALID,997.169,VALID,0,VALID,71.2454,VALID,0,VALID,26.3736,VALID,200,VALID,1.12969,
2012-06-02, 02:14:04,VALID,997.139,VALID,0,VALID,71.2454,VALID,0,VALID,26.3736,VALID,198,VALID,1.08359,
2012-06-02, 02:15:04,VALID,997.161,VALID,0,VALID,71.2683,VALID,0,VALID,26.3951,VALID,212,VALID,1.06797,
2012-06-02, 02:16:04,VALID,997.164,VALID,0,VALID,71.4056,VALID,0,VALID,26.3756,VALID,202,VALID,0.785547,
2012-06-02, 02:17:04,VALID,997.119,VALID,0,VALID,71.4972,VALID,0,VALID,26.3365,VALID,216,VALID,0.763281,
2012-06-02, 02:18:04,VALID,997.134,VALID,0,VALID,71.4056,VALID,0,VALID,26.315,VALID,212,VALID,1.30313,
2012-06-02, 02:19:04,VALID,997.151,VALID,0,VALID,71.5277,VALID,0,VALID,26.3345,VALID,196,VALID,1.04141,
2012-06-02, 02:20:04,VALID,997.155,VALID,0,VALID,71.7871,VALID,0,VALID,26.354,VALID,167,VALID,1.26641,
2012-06-02, 02:21:04,VALID,997.162,VALID,0,VALID,72.3059,VALID,0,VALID,26.1978,VALID,134,VALID,1.09102,
2012-06-02, 02:22:04,VALID,997.205,VALID,0,VALID,74.1141,VALID,0,VALID,25.9245,VALID,102,VALID,1.30117,
2012-06-02, 02:23:04,VALID,997.211,VALID,0,VALID,75.991,VALID,0,VALID,25.573,VALID,91,VALID,1.23555,
2012-06-02, 02:24:04,VALID,997.246,VALID,0,VALID,77.6695,VALID,0,VALID,25.2412,VALID,90,VALID,1.27227,
2012-06-02, 02:25:04,VALID,997.252,VALID,0,VALID,78.814,VALID,0,VALID,24.9679,VALID,91,VALID,1.32344,
2012-06-02, 02:26:04,VALID,997.261,VALID,0,VALID,79.3862,VALID,0,VALID,24.8313,VALID,84,VALID,1.21875,
2012-06-02, 02:27:04,VALID,997.273,VALID,0,VALID,79.9966,VALID,0,VALID,24.7532,VALID,74,VALID,1.22109,
2012-06-02, 02:28:04,VALID,997.227,VALID,0,VALID,80.7748,VALID,0,VALID,24.6166,VALID,63,VALID,1.31406,
2012-06-02, 02:29:04,VALID,997.275,VALID,0,VALID,81.4691,VALID,0,VALID,24.48,VALID,67,VALID,0.894531,
2012-06-02, 02:30:04,VALID,997.291,VALID,0,VALID,82.2168,VALID,0,VALID,24.3433,VALID,67,VALID,0.701563,
2012-06-02, 02:31:04,VALID,997.286,VALID,0,VALID,82.8958,VALID,0,VALID,24.2458,VALID,67,VALID,0.74375,
2012-06-02, 02:32:04,VALID,997.292,VALID,0,VALID,83.5443,VALID,0,VALID,24.1482,VALID,67,VALID,0.645312,
2012-06-02, 02:33:04,VALID,997.282,VALID,0,VALID,84.0632,VALID,0,VALID,24.0506,VALID,67,VALID,0.0207031,
2012-06-02, 02:34:04,VALID,997.26,VALID,0,VALID,84.4752,VALID,0,VALID,23.9939,VALID,67,VALID,0,
2012-06-02, 02:35:04,VALID,997.274,VALID,0,VALID,85.0321,VALID,0,VALID,23.9744,VALID,67,VALID,0.205469,
2012-06-02, 02:36:04,VALID,997.261,VALID,0,VALID,85.4899,VALID,0,VALID,23.9336,VALID,67,VALID,0.281641,
2012-06-02, 02:37:04,VALID,997.25,VALID,0,VALID,86.0926,VALID,0,VALID,23.9354,VALID,67,VALID,0.189844,
2012-06-02, 02:38:04,VALID,997.257,VALID,0,VALID,86.3063,VALID,0,VALID,23.9354,VALID,67,VALID,0.313281,
2012-06-02, 02:39:04,VALID,997.225,VALID,0,VALID,86.5809,VALID,0,VALID,23.9549,VALID,67,VALID,0.316797,
2012-06-02, 02:40:04,VALID,997.238,VALID,0,VALID,86.764,VALID,0,VALID,23.9744,VALID,119,VALID,0.701953,
2012-06-02, 02:41:04,VALID,997.21,VALID,0,VALID,86.8098,VALID,0,VALID,24.0329,VALID,136,VALID,0.485938,
2012-06-02, 02:42:04,VALID,997.215,VALID,0,VALID,86.5123,VALID,0,VALID,24.0506,VALID,136,VALID,0.153906,
2012-06-02, 02:43:04,VALID,997.213,VALID,0,VALID,86.1994,VALID,0,VALID,24.0915,VALID,136,VALID,0.155078,
2012-06-02, 02:44:04,VALID,997.203,VALID,0,VALID,85.9553,VALID,0,VALID,24.072,VALID,136,VALID,0.127734,
2012-06-02, 02:45:04,VALID,997.192,VALID,0,VALID,85.8027,VALID,0,VALID,24.0525,VALID,136,VALID,0.0941406,
2012-06-02, 02:46:04,VALID,997.194,VALID,0,VALID,86.0163,VALID,0,VALID,24.0525,VALID,136,VALID,0,
2012-06-02, 02:47:04,VALID,997.165,VALID,0,VALID,85.8866,VALID,0,VALID,24.0329,VALID,180,VALID,0.590234,
2012-06-02, 02:48:04,VALID,997.157,VALID,0,VALID,83.9945,VALID,0,VALID,24.1092,VALID,217,VALID,0.786719,
2012-06-02, 02:49:04,VALID,997.14,VALID,0,VALID,82.3541,VALID,0,VALID,24.4037,VALID,257,VALID,0.609375,
2012-06-02, 02:50:04,VALID,997.142,VALID,0,VALID,82.1176,VALID,0,VALID,24.4995,VALID,260,VALID,0.689453,
2012-06-02, 02:51:04,VALID,997.149,VALID,0,VALID,81.8735,VALID,0,VALID,24.5404,VALID,254,VALID,0.623047,
2012-06-02, 02:52:04,VALID,997.192,VALID,0,VALID,79.9355,VALID,0,VALID,24.716,VALID,201,VALID,1.38008,
2012-06-02, 02:53:04,VALID,997.181,VALID,0,VALID,77.4483,VALID,0,VALID,25.165,VALID,212,VALID,1.29727,
2012-06-02, 02:54:04,VALID,997.232,VALID,0,VALID,75.6782,VALID,0,VALID,25.4578,VALID,214,VALID,0.824219,
2012-06-02, 02:55:04,VALID,997.242,VALID,0,VALID,74.4651,VALID,0,VALID,25.6921,VALID,197,VALID,1.18164,
2012-06-02, 02:56:04,VALID,997.251,VALID,0,VALID,73.3817,VALID,0,VALID,25.9264,VALID,193,VALID,1.4582,
2012-06-02, 02:57:04,VALID,997.241,VALID,0,VALID,72.3822,VALID,0,VALID,26.1002,VALID,184,VALID,1.40195,
2012-06-02, 02:58:04,VALID,997.244,VALID,0,VALID,71.9931,VALID,0,VALID,26.2584,VALID,196,VALID,1.15117,
2012-06-02, 02:59:04,VALID,997.256,VALID,0,VALID,71.4667,VALID,0,VALID,26.3345,VALID,188,VALID,1.55313,
2012-06-02, 03:00:04,VALID,997.25,VALID,0,VALID,70.7647,VALID,0,VALID,26.4517,VALID,206,VALID,1.63359,
2012-06-02, 03:01:04,VALID,997.266,VALID,0,VALID,70.3069,VALID,0,VALID,26.5493,VALID,200,VALID,1.91445,
2012-06-02, 03:02:04,VALID,997.241,VALID,0,VALID,70.4519,VALID,0,VALID,26.5708,VALID,207,VALID,0.971094,
2012-06-02, 03:03:04,VALID,997.22,VALID,0,VALID,70.2535,VALID,0,VALID,26.5708,VALID,209,VALID,1.29648,
2012-06-02, 03:04:04,VALID,997.237,VALID,0,VALID,70.0247,VALID,0,VALID,26.649,VALID,211,VALID,2.54961,
2012-06-02, 03:05:04,VALID,997.237,VALID,0,VALID,69.4829,VALID,0,VALID,26.7271,VALID,189,VALID,1.96172,
2012-06-02, 03:06:04,VALID,997.223,VALID,0,VALID,69.2235,VALID,0,VALID,26.8052,VALID,190,VALID,2.89414,
2012-06-02, 03:07:04,VALID,997.218,VALID,0,VALID,69.0175,VALID,0,VALID,26.8833,VALID,206,VALID,2.93438,
2012-06-02, 03:08:04,VALID,997.252,VALID,0,VALID,68.7658,VALID,0,VALID,26.9008,VALID,198,VALID,2.49414,
2012-06-02, 03:09:04,VALID,997.287,VALID,0,VALID,68.5521,VALID,0,VALID,26.9985,VALID,199,VALID,2.13945,
2012-06-02, 03:10:04,VALID,997.292,VALID,0,VALID,68.1859,VALID,0,VALID,27.0591,VALID,178,VALID,2.84922,
2012-06-02, 03:11:04,VALID,997.293,VALID,0,VALID,67.8578,VALID,0,VALID,27.0982,VALID,185,VALID,3.71563,
2012-06-02, 03:12:04,VALID,997.298,VALID,0,VALID,67.835,VALID,0,VALID,27.1568,VALID,183,VALID,3.17344,
2012-06-02, 03:13:04,VALID,997.241,VALID,0,VALID,67.7205,VALID,0,VALID,27.1959,VALID,170,VALID,4.19453,
2012-06-02, 03:14:04,VALID,997.26,VALID,0,VALID,68.0104,VALID,0,VALID,27.1568,VALID,167,VALID,4.08594,
2012-06-02, 03:15:04,VALID,997.307,VALID,0,VALID,69.071,VALID,0,VALID,26.9399,VALID,145,VALID,3.97109,
2012-06-02, 03:16:04,VALID,997.318,VALID,0,VALID,71.5506,VALID,0,VALID,26.6079,VALID,123,VALID,2.61641,
2012-06-02, 03:17:04,VALID,997.316,VALID,0,VALID,73.8852,VALID,0,VALID,26.1588,VALID,127,VALID,1.95469,
2012-06-02, 03:18:04,VALID,997.319,VALID,0,VALID,75.3883,VALID,0,VALID,25.7897,VALID,136,VALID,1.25664,
2012-06-02, 03:19:04,VALID,997.297,VALID,0,VALID,76.6319,VALID,0,VALID,25.4754,VALID,124,VALID,1.8,
2012-06-02, 03:20:04,VALID,997.289,VALID,0,VALID,77.6314,VALID,0,VALID,25.3212,VALID,121,VALID,1.91797,
2012-06-02, 03:21:04,VALID,997.255,VALID,0,VALID,78.402,VALID,0,VALID,25.1455,VALID,129,VALID,1.51992,
2012-06-02, 03:22:04,VALID,997.211,VALID,0,VALID,79.02,VALID,0,VALID,25.0284,VALID,131,VALID,1.72109,
2012-06-02, 03:23:04,VALID,997.187,VALID,0,VALID,79.1421,VALID,0,VALID,24.9893,VALID,138,VALID,2.17891,
2012-06-02, 03:24:04,VALID,997.153,VALID,0,VALID,78.8292,VALID,0,VALID,25.0284,VALID,141,VALID,2.16563,
2012-06-02, 03:25:04,VALID,997.154,VALID,0,VALID,78.5546,VALID,0,VALID,25.0869,VALID,150,VALID,1.85859,
2012-06-02, 03:26:04,VALID,997.127,VALID,0,VALID,77.7229,VALID,0,VALID,25.2431,VALID,158,VALID,2.22578,
2012-06-02, 03:27:04,VALID,997.122,VALID,0,VALID,76.4946,VALID,0,VALID,25.4578,VALID,165,VALID,2.46133,
2012-06-02, 03:28:04,VALID,997.082,VALID,0,VALID,74.8389,VALID,0,VALID,25.7487,VALID,161,VALID,2.86172,
2012-06-02, 03:29:04,VALID,997.081,VALID,0,VALID,74.2667,VALID,0,VALID,25.946,VALID,153,VALID,2.32109,
2012-06-02, 03:30:04,VALID,997.092,VALID,0,VALID,73.9997,VALID,0,VALID,26.0045,VALID,148,VALID,2.12188,
2012-06-02, 03:31:04,VALID,997.08,VALID,0,VALID,74.1523,VALID,0,VALID,25.9655,VALID,151,VALID,2.08828,
2012-06-02, 03:32:04,VALID,997.108,VALID,0,VALID,74.1752,VALID,0,VALID,25.946,VALID,148,VALID,2.23945,
2012-06-02, 03:33:04,VALID,997.081,VALID,0,VALID,73.8471,VALID,0,VALID,25.9655,VALID,148,VALID,2.34414,
2012-06-02, 03:34:04,VALID,997.083,VALID,0,VALID,73.6487,VALID,0,VALID,26.0241,VALID,146,VALID,2.97031,
2012-06-02, 03:35:04,VALID,997.096,VALID,0,VALID,73.9158,VALID,0,VALID,26.0026,VALID,143,VALID,2.10469,
2012-06-02, 03:36:04,VALID,997.077,VALID,0,VALID,73.4885,VALID,0,VALID,26.0045,VALID,152,VALID,2.42227,
2012-06-02, 03:37:04,VALID,997.071,VALID,0,VALID,72.9544,VALID,0,VALID,26.1217,VALID,149,VALID,2.725,
2012-06-02, 03:38:04,VALID,997.047,VALID,0,VALID,72.7484,VALID,0,VALID,26.1783,VALID,147,VALID,2.46719,
2012-06-02, 03:39:04,VALID,997.055,VALID,0,VALID,72.4661,VALID,0,VALID,26.2193,VALID,145,VALID,2.59609,
2012-06-02, 03:40:04,VALID,997.009,VALID,0,VALID,72.0007,VALID,0,VALID,26.2779,VALID,149,VALID,2.74688,
2012-06-02, 03:41:04,VALID,997.01,VALID,0,VALID,71.7261,VALID,0,VALID,26.3365,VALID,152,VALID,2.71719,
2012-06-02, 03:42:04,VALID,997.014,VALID,0,VALID,71.5124,VALID,0,VALID,26.3345,VALID,154,VALID,2.70664,
2012-06-02, 03:43:04,VALID,997.003,VALID,0,VALID,71.4285,VALID,0,VALID,26.354,VALID,159,VALID,2.55117,
2012-06-02, 03:44:04,VALID,996.993,VALID,0,VALID,71.1691,VALID,0,VALID,26.3931,VALID,158,VALID,2.97656,
2012-06-02, 03:45:04,VALID,996.996,VALID,0,VALID,70.9402,VALID,0,VALID,26.4341,VALID,162,VALID,3.24336,
2012-06-02, 03:46:04,VALID,996.991,VALID,0,VALID,71.0623,VALID,0,VALID,26.4537,VALID,156,VALID,2.67812,